Weather in Sincelejo

Colombia     9°16′59″N   75°23′53″W
temp.,
°C
wind,
m/s
gust,
m/s
humid.,
%
clouds,
%
prec.,
mm/h
press.,
hPa
HPBL,
m
8 august, mon
mon801:00+24nw1195100 0.0 100818
04:00+23sw229695 0.2 100832
07:00+24ssw239478 0.2 1009116
10:00+28ssw338183 0.3 1010684
13:00+30sw117044 1.3 10081105
16:00+29nw4482100 1.6 1006588
19:00+25nw369292 2.0 1008153
22:00+24nw249422 1.3 101084
9 august, tue
tue901:00+23wsw239798 5.3 100970
04:00+23wsw1297100 3.4 100952
07:00+25sw239470 3.8 1010114
10:00+28w337983 0.8 1011715
13:00+30nw227337 2.3 1009954
16:00+29nw558291 1.6 1008683
19:00+25nw369188 2.6 1010131
22:00+25nw3693100 0.9 1011129
10 august, wed
wed1001:00+24w2396100 4.8 101063
04:00+24sw3596100 0.8 1010142
07:00+24ssw3596100 0.8 1012174
10:00+27sw3483100 1.0 1012573
13:00+30wnw227180 1.1 10101149
16:00+27nnw568778 0.8 1008351
19:00+25nnw3691100 1.3 1010157
22:00+24nnw249498 1.1 1011102
11 august, thu
thu1101:00+24nw0196100 6.9 101112
04:00+23ese2297100 11.8 101089
07:00+23ssw3698100 22.9 1012321
10:00+24s1292100 0.1 1012267
13:00+26sw2381100 0.2 1011798
16:00+27sw117899 0.0 1009636
19:00+24nw228795 0.0 101026
22:00+23nw2291100 0.0 101235
12 august, fri
fri1201:00+23nw1192100 0.0 101116
04:00+23w119372 0.0 101111
07:00+24sw129139 0.0 101282
10:00+28wsw227814 0.5 1012688
13:00+30nw3269100 1.0 10101166
16:00+28nw458234 1.1 1009633
19:00+25nnw3689100 2.0 1010116
22:00+24nnw2390100 0.0 101268